Dewpoint
54 54 55 55 55 55 55 55 55 55 56 55 54 53 55 56 54 50 47 50 54 56 56 54 51 46 48 47 46 42 38 36 35 32 24 30 38 44 50 49 50 55 57 58 59
54 54 54 54 54 54 54 54 54 55 56 56 54 53 53 53 50 47 50 53 55 56 54 51 48 45 44 44 43 39 36 36 36 34 37 37 38 43 47 54 54 57 59 58 60
54 54 54 54 54 54 54 54 54 54 55 56 55 53 52 50 45 43 49 52 53 55 53 52 50 45 43 43 41 37 35 36 36 35 38 36 36 36 42 49 54 51 58 58 60
53 54 54 54 54 54 54 53 54 54 55 56 55 52 49 46 34 44 46 49 52 52 51 49 44 42 42 39 41 38 36 35 35 34 35 35 36 35 44 49 55 55 60 59 56
53 53 53 54 54 54 54 54 53 53 54 56 55 51 41 40 40 42 45 46 49 49 47 45 44 41 39 39 40 38 38 38 36 32 33 33 33 35 35 49 54 57 60 59 55
52 53 53 53 54 54 54 53 53 53 54 55 54 50 40 36 41 42 42 44 48 47 47 46 46 46 43 39 37 39 39 38 35 34 32 29 31 34 34 50 56 56 59 58 55
52 52 52 53 53 53 53 53 53 53 54 54 52 44 37 37 43 42 42 44 47 47 46 48 47 45 45 40 40 39 37 36 35 34 31 31 28 30 33 38 54 58 59 58 56
52 52 52 53 53 53 53 53 53 53 53 51 48 40 36 43 44 42 42 45 45 46 46 47 47 46 44 42 40 37 36 33 34 34 33 30 24 30 31 33 49 54 55 58 58
51 52 52 52 53 53 53 53 53 53 51 47 39 39 34 44 42 42 43 43 44 45 46 45 43 43 42 38 34 34 30 30 30 31 31 29 27 28 30 30 46 53 55 54 57
51 51 52 52 52 53 53 50 50 48 41 41 37 31 35 35 40 41 43 44 43 42 42 43 41 38 39 34 27 31 31 31 30 30 30 25 25 28 27 45 49 50 55 53 58
51 52 52 52 51 52 49 40 33 34 34 29 31 32 32 39 40 41 42 42 41 40 35 36 35 31 31 35 34 34 32 31 30 31 31 25 23 23 27 41 45 48 52 55 56
51 52 52 52 51 50 47 37 38 38 25 29 30 31 32 35 30 38 41 40 38 33 36 34 32 34 35 34 33 33 32 31 30 31 29 27 25 25 25 31 44 46 50 54 54
51 51 51 52 51 45 36 39 43 41 31 26 28 29 31 32 30 35 38 37 36 35 32 31 31 35 33 32 32 32 31 31 30 30 31 29 26 25 26 25 40 48 49 54 56
52 51 51 51 43 40 38 41 43 40 20 23 23 28 33 33 29 36 37 37 33 34 33 32 34 33 33 32 31 29 30 29 29 29 27 30 26 28 27 23 31 46 49 51 56
51 51 51 51 41 38 39 40 40 38 2 22 23 32 33 29 31 32 38 35 29 30 32 28 33 33 33 33 31 29 28 28 27 26 28 29 28 28 25 23 21 43 49 52 55
51 51 51 44 43 42 40 40 41 21 -3 17 25 25 27 29 28 34 32 34 30 27 28 30 36 34 34 36 33 32 28 27 27 28 26 26 27 24 25 25 21 26 47 51 53
51 51 50 46 35 41 41 42 27 9 13 13 18 25 25 25 26 27 26 28 22 18 23 29 31 34 35 34 35 31 27 23 22 23 21 24 26 24 26 27 26 21 40 48 51
52 51 46 42 42 42 41 33 16 12 25 18 16 23 20 22 24 25 23 24 26 26 24 22 15 32 34 34 29 29 27 24 18 20 22 25 22 22 25 27 29 28 27 43 50
52 45 42 43 42 43 37 26 12 18 19 15 18 17 18 19 18 19 22 21 22 24 20 21 24 32 34 35 31 28 27 30 28 27 24 21 23 25 25 24 25 26 28 38 47
48 44 41 44 43 42 34 21 24 31 18 19 10 15 11 18 15 19 19 21 20 24 23 22 18 29 30 34 34 32 31 26 29 21 19 20 19 19 20 22 25 26 26 29 44
46 38 40 43 42 38 26 26 25 26 20 17 15 12 15 17 18 18 15 18 22 22 23 21 19 23 28 29 30 33 30 28 28 28 22 19 17 24 21 21 21 25 27 28 30
43 31 40 42 31 33 27 30 27 24 24 21 22 20 15 13 16 19 17 16 21 22 21 22 21 19 21 25 31 32 30 28 24 22 24 22 22 25 24 22 26 26 25 27 30
38 37 41 40 28 27 28 28 28 25 24 23 22 23 20 16 12 16 17 21 23 21 19 22 19 13 16 19 22 29 31 28 28 28 25 23 22 24 22 20 23 24 22 24 27
37 31 36 38 34 30 29 27 26 27 26 25 23 24 21 20 18 13 17 23 24 23 25 22 19 13 4 13 20 20 21 29 28 26 25 25 25 27 27 26 23 26 26 26 26
34 31 34 30 32 34 33 31 29 27 27 28 25 23 22 19 18 17 19 26 26 28 25 22 19 19 18 19 19 19 19 20 25 27 25 20 22 26 28 28 28 26 25 24 24
30 31 31 26 27 26 27 31 31 31 28 26 25 24 23 21 18 14 17 22 21 29 25 25 20 22 18 19 19 18 18 19 20 22 26 25 23 23 25 25 25 23 20 21 21
34 34 31 24 24 25 24 24 26 32 32 27 26 25 23 23 22 21 21 21 22 25 26 25 23 20 16 16 16 14 15 16 17 17 19 21 22 23 22 22 19 19 20 20 22
Wind_Speed
11 11 12 12 13 13 13 14 14 14 12 11 11 11 13 14 18 7 3 6 8 13 14 12 14 10 5 4 3 3 6 10 7 9 12 10 10 7 9 15 9 13 26 15 29
11 11 12 12 12 12 13 13 13 13 13 12 12 12 13 12 7 2 5 10 10 9 6 11 14 6 3 4 4 3 7 9 9 10 10 12 11 15 5 2 10 15 8 35 27
12 12 12 12 12 13 13 12 13 13 12 12 13 14 12 8 4 1 8 11 10 7 3 7 11 4 3 1 4 4 13 14 20 13 9 16 17 10 7 4 10 8 2 30 22
15 14 13 13 13 13 14 13 13 13 13 11 13 14 16 0 5 1 8 11 12 9 6 6 4 3 3 5 3 5 13 17 19 20 11 12 16 21 5 5 9 20 18 19 18
17 15 14 13 13 14 14 14 13 14 14 13 12 13 7 4 4 1 5 10 12 9 5 5 5 4 6 6 7 4 7 11 14 13 12 12 16 12 17 5 11 22 27 22 18
20 17 15 15 15 15 15 15 14 14 15 12 11 12 1 5 1 1 5 7 8 10 9 1 3 7 8 5 3 6 12 18 11 17 12 15 20 6 7 8 6 24 30 20 19
20 19 17 15 14 15 15 15 14 14 15 11 7 4 4 8 1 1 4 3 4 5 7 4 3 3 7 8 6 7 9 15 17 15 16 13 21 13 12 7 6 22 24 22 17
22 22 21 18 16 16 16 15 14 13 12 9 5 2 6 2 2 3 4 2 4 6 5 9 4 3 3 6 5 5 3 5 11 11 13 7 27 8 15 9 7 16 21 21 20
22 22 23 21 18 18 19 19 16 14 8 5 2 2 8 1 2 3 1 2 7 7 6 9 5 3 0 2 5 4 7 8 14 14 13 13 13 18 8 12 12 12 22 16 23
22 22 22 21 19 20 22 21 8 6 4 4 5 3 4 2 3 1 4 2 2 7 5 3 4 3 3 3 4 3 7 10 13 10 4 11 23 21 23 6 6 6 17 26 29
23 23 23 23 19 19 14 5 3 2 3 8 5 4 1 4 3 4 4 3 5 3 2 3 3 9 6 11 9 9 11 16 20 14 6 11 23 24 21 11 10 9 11 23 28
23 24 25 25 23 17 3 4 2 2 11 14 20 11 4 4 3 7 3 2 4 7 6 4 11 14 6 2 3 6 10 18 19 11 8 12 21 22 18 13 17 17 13 20 17
23 24 26 27 24 4 3 2 4 5 5 5 3 5 4 8 5 8 9 2 5 8 8 10 6 4 4 8 8 9 10 14 17 16 12 12 23 22 22 18 17 16 16 18 25
23 25 27 31 2 7 1 3 4 2 5 5 4 3 5 3 4 4 8 2 3 5 3 8 5 4 6 11 10 11 3 5 8 9 7 5 13 17 14 17 16 21 20 20 24
23 25 26 20 7 4 2 3 4 2 7 4 4 2 5 6 1 4 2 4 7 3 1 7 6 6 9 9 10 7 3 3 8 10 11 13 11 9 7 12 22 26 27 28 27
22 24 24 4 4 4 3 3 2 3 9 5 5 6 4 5 4 4 2 1 4 4 8 15 2 5 8 3 4 5 4 5 6 4 9 16 12 17 10 13 10 12 22 26 25
21 25 22 4 3 1 2 2 1 6 2 5 7 7 7 7 7 10 7 8 8 3 5 3 13 4 5 3 5 2 3 1 3 5 10 4 11 26 17 21 13 14 23 28 30
23 25 9 9 2 2 1 3 9 7 9 1 4 8 8 7 9 13 5 9 15 9 3 5 4 13 9 8 7 9 8 5 6 5 5 1 10 9 18 24 18 18 13 25 28
22 7 7 7 12 5 4 10 11 10 4 5 2 6 6 7 7 9 14 11 9 25 14 8 6 4 12 4 8 5 10 5 4 4 4 7 9 13 24 23 18 11 6 16 22
12 7 8 2 10 5 7 16 14 12 5 7 12 14 10 8 11 11 8 6 7 19 14 6 5 6 5 1 6 5 2 5 3 5 7 8 12 17 16 11 10 12 17 11 17
3 6 2 4 4 3 15 13 14 17 11 11 13 14 15 10 15 11 7 5 17 11 23 6 4 1 6 12 15 8 7 7 6 5 5 5 8 7 3 5 11 11 17 19 10
6 7 4 5 5 6 16 6 11 13 10 15 6 10 12 16 13 18 18 18 14 15 12 12 5 10 17 10 18 14 15 16 9 7 8 7 19 19 27 5 5 4 6 4 3
6 8 8 4 12 18 16 22 16 19 13 10 12 13 13 15 13 15 16 8 19 19 16 13 8 4 4 1 3 10 13 14 13 3 18 12 14 3 6 1 5 6 2 4 3
6 6 2 7 15 17 18 31 28 13 23 12 16 14 11 12 15 9 12 8 14 16 10 15 8 12 17 4 6 8 12 22 20 13 17 32 34 24 25 20 14 10 14 10 8
4 6 4 11 9 19 25 23 23 19 13 17 26 29 19 21 20 26 12 7 6 11 11 11 11 13 21 17 9 11 13 16 26 36 20 42 26 42 25 25 25 10 11 12 10
6 7 9 18 20 25 27 23 27 27 20 30 32 27 25 33 30 22 21 16 12 11 15 8 9 7 18 21 20 23 25 24 29 31 30 38 40 24 16 18 22 14 10 11 9
4 5 7 11 17 21 21 30 34 30 35 36 36 27 31 32 30 20 5 8 7 17 18 11 11 8 15 17 15 13 32 26 30 29 30 31 47 6 12 9 10 8 6 7 7
Wind_Direction
356 356 350 349 354 342 343 342 348 343 339 338 348 331 319 319 327 328 18 303 319 327 328 305 292 270 318 281 264 260 242 257 272 305 281 311 329 256 181 144 156 177 233 192 176
358 357 350 349 344 334 339 339 341 336 334 326 321 327 321 323 317 21 321 319 323 328 351 340 329 307 306 281 273 233 247 257 257 327 315 324 326 283 147 194 148 233 197 149 157
360 356 350 344 334 330 331 331 332 329 329 321 314 318 330 335 337 123 338 325 327 320 290 303 297 336 277 222 259 246 262 283 282 288 326 329 333 318 350 11 171 195 223 156 163
360 352 346 337 330 326 324 325 325 322 322 319 314 321 325 145 356 267 350 326 313 290 294 321 314 301 292 314 274 315 263 253 270 274 297 314 312 323 59 203 193 133 228 174 174
2 351 341 331 328 325 320 320 323 320 321 317 312 320 348 329 261 342 343 329 322 326 289 347 352 303 294 306 312 243 284 300 311 286 286 298 296 303 303 209 135 167 185 183 165
5 354 343 336 330 322 318 318 318 316 316 312 312 323 256 302 190 349 348 327 336 329 333 16 26 323 286 271 286 309 303 297 301 301 299 284 286 311 299 131 190 191 184 166 151
3 357 347 336 327 318 314 311 311 310 312 303 306 314 287 259 293 342 284 282 282 323 319 20 351 19 325 311 334 294 296 304 291 280 276 306 287 245 256 267 186 237 160 144 134
360 356 349 337 322 314 308 303 300 296 299 286 293 314 260 210 324 274 345 318 294 283 268 290 273 272 192 305 310 264 235 281 271 267 262 185 268 248 297 314 204 202 162 147 141
358 355 352 340 324 314 308 302 296 292 266 265 291 179 281 121 253 178 171 325 311 281 258 269 278 232 189 253 310 304 277 270 295 286 218 196 269 287 329 270 240 189 159 157 149
354 350 347 343 329 318 316 299 278 318 255 214 268 339 224 228 155 210 194 207 295 320 293 231 238 247 170 186 254 322 308 308 299 318 331 261 246 266 281 286 246 242 170 169 170
350 345 342 342 334 329 340 360 19 16 233 210 194 215 197 132 137 224 181 271 245 245 263 255 296 248 253 219 246 290 290 293 299 291 294 278 254 257 263 236 243 245 180 172 182
348 344 340 338 329 323 335 25 39 304 301 258 249 241 156 131 278 220 148 227 215 253 220 237 252 264 266 236 247 288 293 288 300 305 293 271 277 283 272 248 223 213 206 186 189
345 343 339 336 327 340 358 27 323 349 280 293 192 172 176 158 232 202 168 217 244 272 232 230 244 205 261 273 255 247 255 276 274 302 316 301 286 272 263 255 224 212 212 180 178
341 339 340 336 19 336 36 333 331 20 316 243 209 213 138 141 253 158 179 191 270 253 269 260 217 200 265 266 246 262 194 335 347 345 278 47 287 278 283 255 223 205 196 202 180
337 335 339 332 300 326 291 326 328 74 318 142 155 112 160 175 95 208 92 135 230 242 179 262 207 234 243 248 261 263 43 323 305 298 306 287 282 269 303 261 239 203 196 193 191
331 330 336 328 288 265 314 342 59 14 255 209 155 176 174 221 221 133 189 231 266 280 245 249 192 216 218 256 278 329 353 295 284 257 260 248 223 276 247 263 238 210 202 193 196
323 322 322 266 256 306 354 37 295 208 4 218 217 184 205 213 214 188 188 198 215 224 236 284 228 210 197 232 239 174 67 238 232 221 244 264 222 251 290 277 267 246 205 204 197
318 314 276 211 189 174 87 87 223 241 241 192 176 177 206 194 230 192 215 235 230 213 289 240 269 184 201 205 180 191 182 203 228 218 285 204 243 254 252 266 273 258 233 211 199
322 304 282 240 202 145 146 210 227 216 233 179 137 201 236 227 224 188 219 230 219 196 201 203 263 134 171 190 175 186 211 201 295 254 241 240 274 289 262 269 272 284 233 208 206
323 299 263 150 140 131 187 232 221 218 181 180 222 200 223 205 196 193 213 228 223 192 189 204 262 204 163 126 256 197 168 166 165 257 245 258 254 245 286 333 320 298 276 237 219
283 310 279 116 92 174 227 226 236 233 194 204 235 240 227 204 207 198 226 255 205 188 187 176 198 181 139 201 196 189 222 205 187 216 241 280 254 211 286 302 300 300 295 262 233
304 286 197 135 192 224 243 250 240 248 222 237 233 232 223 225 215 213 218 217 174 152 186 197 179 228 223 228 201 195 206 189 195 233 236 258 269 272 285 281 270 283 326 325 168
277 263 211 181 255 245 268 276 265 261 242 225 239 219 220 235 244 213 223 224 169 171 183 167 211 233 282 253 177 210 213 215 224 243 246 267 256 315 343 180 270 233 285 274 325
290 283 207 212 235 249 259 265 269 260 266 227 244 232 234 235 226 250 230 194 188 185 159 168 197 210 226 212 149 199 217 212 212 225 242 238 257 261 271 272 280 288 289 261 282
275 275 304 281 279 260 255 265 269 265 258 253 256 241 233 238 231 232 226 184 204 182 178 187 233 235 246 249 246 236 238 221 216 235 228 258 236 254 251 260 273 278 280 237 240
303 342 348 302 301 299 297 279 268 270 253 259 261 262 233 237 236 246 223 211 205 189 176 183 232 245 260 257 250 255 259 246 230 233 233 251 265 251 256 256 276 287 232 228 248
328 285 281 284 289 284 283 284 284 296 268 256 255 254 247 240 238 245 257 201 197 188 186 183 202 219 254 260 263 249 241 235 243 240 230 240 248 221 234 240 246 200 173 181 203